Location: Ailly
(50.0793°N, 1.9944°E)
Time: 23:44:07
(UTC+00:00)

ARIANE 5 R/B - Pass Details

Date: 15 January 2026
Orbit: 746 x 793 km, 98.8° (Epoch: 16 February)

Event Time Altitude Azimuth Distance (km) Brightness Sun altitude
Rises 06:40:12 0° 15° (NNE) 3,276 5.7 -10.1°
Reaches altitude 10° 06:42:33 10° 17° (NNE) 2,337 5.0 -9.7°
Maximum altitude 06:47:42 80° 105° (ESE) 787 2.7 -9.0°
Drops below altitude 10° 06:52:45 10° 192° (SSW) 2,288 5.1 -8.2°
Sets 06:55:02 0° 194° (SSW) 3,203 5.9 -7.9°
